N321GM 3O8-KCRQ

Flight info

Callsign N321GM
Flight time N/A
Altitude 21000
Route BURGL LEGOZ4
Aircraft MU2/L-VGDW/C

Departure

Time N/A
Airport 3O8

Arrival

Time 2026-04-20 01:48
Airport McClellan-Palomar Airport (KCRQ)
Time Latitude Longitude Altitude Speed Heading
2026-04-20 00:29 36.25231 -120.23854 473 ft 0 kts 181°
2026-04-20 00:35 36.25194 -120.23852 473 ft 27 kts 171°
2026-04-20 00:35 36.25241 -120.23899 473 ft 0 kts 176°
2026-04-20 00:36 36.25240 -120.23899 473 ft 0 kts 175°
2026-04-20 00:38 36.25239 -120.23899 473 ft 0 kts 175°
2026-04-20 00:40 36.25237 -120.23899 473 ft 1 kts 174°
2026-04-20 00:41 36.25224 -120.23898 473 ft 3 kts 177°
2026-04-20 00:41 36.25186 -120.23905 473 ft 7 kts 190°
2026-04-20 00:41 36.25151 -120.23952 473 ft 6 kts 249°
2026-04-20 00:41 36.25142 -120.23964 473 ft 1 kts 174°
2026-04-20 00:42 36.25067 -120.23919 473 ft 51 kts 157°
2026-04-20 00:42 36.24366 -120.23549 812 ft 139 kts 162°
2026-04-20 00:42 36.23364 -120.23329 1947 ft 154 kts 170°
2026-04-20 00:42 36.22263 -120.23042 3128 ft 163 kts 167°
2026-04-20 00:43 36.21162 -120.22753 4589 ft 160 kts 169°
2026-04-20 00:43 36.20068 -120.22450 6059 ft 163 kts 163°
2026-04-20 00:43 36.18936 -120.22180 7460 ft 167 kts 172°
2026-04-20 00:43 36.17769 -120.22004 8802 ft 171 kts 173°
2026-04-20 00:44 36.16578 -120.21813 10093 ft 175 kts 172°
2026-04-20 00:44 36.15379 -120.21594 11326 ft 178 kts 171°
2026-04-20 00:44 36.14123 -120.21343 12551 ft 182 kts 170°
2026-04-20 00:44 36.12878 -120.21080 13707 ft 185 kts 169°
2026-04-20 00:45 36.11600 -120.20802 14840 ft 189 kts 169°
2026-04-20 00:45 36.10293 -120.20512 15944 ft 192 kts 169°
2026-04-20 00:45 36.08968 -120.20216 17012 ft 195 kts 169°
2026-04-20 00:45 36.07620 -120.19913 18050 ft 198 kts 169°
2026-04-20 00:46 36.06247 -120.19604 19061 ft 202 kts 169°
2026-04-20 00:46 36.04869 -120.19295 20030 ft 205 kts 169°
2026-04-20 00:46 36.03458 -120.18978 20965 ft 208 kts 169°
2026-04-20 00:46 36.02025 -120.18656 21848 ft 210 kts 169°
2026-04-20 00:47 36.00577 -120.18331 22681 ft 213 kts 169°
2026-04-20 00:47 35.99108 -120.18001 23473 ft 216 kts 169°
2026-04-20 00:47 35.97623 -120.17667 24236 ft 218 kts 169°
2026-04-20 00:47 35.96112 -120.17328 24980 ft 221 kts 169°
2026-04-20 00:48 35.94588 -120.16985 25699 ft 224 kts 169°
2026-04-20 00:48 35.93052 -120.16640 26395 ft 226 kts 169°
2026-04-20 00:48 35.91495 -120.16292 27072 ft 228 kts 169°
2026-04-20 00:48 35.89921 -120.15939 27725 ft 231 kts 169°
2026-04-20 00:49 35.88333 -120.15584 28357 ft 233 kts 169°
2026-04-20 00:49 35.86726 -120.15224 28872 ft 242 kts 169°
2026-04-20 00:49 35.84995 -120.14838 28926 ft 261 kts 169°
2026-04-20 00:49 35.83163 -120.14432 28985 ft 272 kts 169°
2026-04-20 00:50 35.81266 -120.14013 29005 ft 281 kts 169°
2026-04-20 00:50 35.79325 -120.13585 29003 ft 286 kts 169°
2026-04-20 00:50 35.77351 -120.13149 29004 ft 289 kts 169°
2026-04-20 00:50 35.75389 -120.12716 29005 ft 291 kts 169°
2026-04-20 00:51 35.73362 -120.12267 29003 ft 292 kts 169°
2026-04-20 00:51 35.71381 -120.11829 29003 ft 293 kts 169°
2026-04-20 00:51 35.69393 -120.11289 29003 ft 293 kts 163°
2026-04-20 00:51 35.67466 -120.10437 29004 ft 293 kts 157°
2026-04-20 00:52 35.65605 -120.09399 29005 ft 294 kts 154°
2026-04-20 00:52 35.63789 -120.08254 29005 ft 294 kts 152°
2026-04-20 00:52 35.61996 -120.07042 29004 ft 294 kts 150°
2026-04-20 00:52 35.60226 -120.05796 29003 ft 294 kts 149°
2026-04-20 00:53 35.58459 -120.04519 29003 ft 294 kts 149°
2026-04-20 00:53 35.56722 -120.03245 29003 ft 294 kts 149°
2026-04-20 00:53 35.54966 -120.01945 29003 ft 294 kts 149°
2026-04-20 00:53 35.53219 -120.00643 29003 ft 294 kts 148°
2026-04-20 00:54 35.51470 -119.99335 29003 ft 294 kts 148°
2026-04-20 00:54 35.49722 -119.98026 29003 ft 294 kts 148°
2026-04-20 00:54 35.47979 -119.96719 29003 ft 294 kts 148°
2026-04-20 00:54 35.46230 -119.95407 29003 ft 294 kts 148°
2026-04-20 00:55 35.44511 -119.94117 29003 ft 294 kts 148°
2026-04-20 00:55 35.42766 -119.92808 29003 ft 294 kts 148°
2026-04-20 00:55 35.41016 -119.91495 29003 ft 294 kts 148°
2026-04-20 00:55 35.39272 -119.90188 29003 ft 294 kts 148°
2026-04-20 00:56 35.37525 -119.88879 29003 ft 294 kts 148°
2026-04-20 00:56 35.35783 -119.87575 29003 ft 294 kts 148°
2026-04-20 00:56 35.34038 -119.86269 29003 ft 294 kts 148°
2026-04-20 00:56 35.32290 -119.84959 29003 ft 294 kts 148°
2026-04-20 00:57 35.30586 -119.83581 29003 ft 294 kts 145°
2026-04-20 00:57 35.28921 -119.82124 29003 ft 294 kts 143°
2026-04-20 00:57 35.27278 -119.80625 29003 ft 294 kts 143°
2026-04-20 00:57 35.25650 -119.79105 29003 ft 294 kts 142°
2026-04-20 00:58 35.24029 -119.77570 29003 ft 294 kts 142°
2026-04-20 00:58 35.22418 -119.76031 29003 ft 294 kts 142°
2026-04-20 00:58 35.20810 -119.74488 29003 ft 294 kts 142°
2026-04-20 00:58 35.19207 -119.72943 29003 ft 294 kts 141°
2026-04-20 00:59 35.17599 -119.71390 29003 ft 294 kts 141°
2026-04-20 00:59 35.16014 -119.69858 29003 ft 294 kts 141°
2026-04-20 00:59 35.14894 -119.68775 29003 ft 294 kts 141°
2026-04-20 00:59 35.13289 -119.67221 29003 ft 294 kts 141°
2026-04-20 01:00 35.11689 -119.65672 29003 ft 294 kts 141°
2026-04-20 01:00 35.10079 -119.64113 29003 ft 294 kts 141°
2026-04-20 01:00 35.08477 -119.62563 29003 ft 294 kts 141°
2026-04-20 01:00 35.06874 -119.61011 29003 ft 294 kts 141°
2026-04-20 01:01 35.05271 -119.59460 29003 ft 294 kts 141°
2026-04-20 01:01 35.03667 -119.57908 29004 ft 294 kts 141°
2026-04-20 01:01 35.02069 -119.56363 29004 ft 294 kts 141°
2026-04-20 01:01 35.00462 -119.54810 29004 ft 294 kts 141°
2026-04-20 01:02 34.98859 -119.53262 29004 ft 294 kts 141°
2026-04-20 01:02 34.97252 -119.51710 29004 ft 294 kts 141°
2026-04-20 01:02 34.95650 -119.50164 29004 ft 294 kts 141°
2026-04-20 01:02 34.94062 -119.48632 29004 ft 294 kts 141°
2026-04-20 01:03 34.92462 -119.47089 29004 ft 294 kts 141°
2026-04-20 01:03 34.90858 -119.45544 29004 ft 294 kts 141°
2026-04-20 01:03 34.89252 -119.43997 29004 ft 294 kts 141°
2026-04-20 01:03 34.87644 -119.42449 29004 ft 294 kts 141°
2026-04-20 01:04 34.86037 -119.40902 29004 ft 294 kts 141°
2026-04-20 01:04 34.84430 -119.39357 29004 ft 294 kts 141°
2026-04-20 01:04 34.82826 -119.37815 29004 ft 294 kts 141°
2026-04-20 01:04 34.81217 -119.36269 29004 ft 294 kts 141°
2026-04-20 01:05 34.79608 -119.34725 29004 ft 294 kts 141°
2026-04-20 01:05 34.77999 -119.33180 29004 ft 294 kts 141°
2026-04-20 01:05 34.76395 -119.31641 29004 ft 294 kts 141°
2026-04-20 01:05 34.74787 -119.30100 29004 ft 294 kts 142°
2026-04-20 01:06 34.73174 -119.28554 28971 ft 295 kts 141°
2026-04-20 01:06 34.71571 -119.27019 28745 ft 301 kts 142°
2026-04-20 01:06 34.69900 -119.25420 28387 ft 308 kts 142°
2026-04-20 01:06 34.68209 -119.23804 27997 ft 312 kts 142°
2026-04-20 01:07 34.66493 -119.22166 27598 ft 313 kts 142°
2026-04-20 01:07 34.64780 -119.20532 27199 ft 314 kts 142°
2026-04-20 01:07 34.63061 -119.18893 26741 ft 315 kts 142°
2026-04-20 01:07 34.61324 -119.17237 26169 ft 318 kts 142°
2026-04-20 01:08 34.59585 -119.15579 25577 ft 319 kts 142°
2026-04-20 01:08 34.57833 -119.13911 24976 ft 319 kts 142°
2026-04-20 01:08 34.56093 -119.12255 24377 ft 318 kts 142°
2026-04-20 01:08 34.54358 -119.10604 24079 ft 309 kts 142°
2026-04-20 01:09 34.52693 -119.09019 24005 ft 300 kts 142°
2026-04-20 01:09 34.51076 -119.07480 23997 ft 293 kts 142°
2026-04-20 01:09 34.49539 -119.06015 23999 ft 289 kts 142°
2026-04-20 01:09 34.47969 -119.04520 23999 ft 287 kts 142°
2026-04-20 01:10 34.46407 -119.03033 23998 ft 285 kts 142°
2026-04-20 01:10 34.43285 -119.00065 23997 ft 284 kts 142°
2026-04-20 01:10 34.41722 -118.98581 23997 ft 284 kts 142°
2026-04-20 01:11 34.40189 -118.97125 23997 ft 284 kts 142°
2026-04-20 01:11 34.38636 -118.95653 23997 ft 284 kts 142°
2026-04-20 01:11 34.37076 -118.94175 23997 ft 284 kts 142°
2026-04-20 01:11 34.35519 -118.92700 23997 ft 284 kts 142°
2026-04-20 01:12 34.33939 -118.91205 23997 ft 284 kts 142°
2026-04-20 01:12 34.32404 -118.89752 23997 ft 284 kts 142°
2026-04-20 01:12 34.30844 -118.88278 23997 ft 284 kts 142°
2026-04-20 01:12 34.29287 -118.86807 23997 ft 284 kts 142°
2026-04-20 01:13 34.27718 -118.85360 23997 ft 284 kts 144°
2026-04-20 01:13 34.26056 -118.84058 23997 ft 284 kts 149°
2026-04-20 01:13 34.24327 -118.82895 23997 ft 284 kts 152°
2026-04-20 01:13 34.22556 -118.81829 23932 ft 286 kts 154°
2026-04-20 01:14 34.20718 -118.80807 23637 ft 294 kts 156°
2026-04-20 01:14 34.18834 -118.79814 23198 ft 301 kts 156°
2026-04-20 01:14 34.16914 -118.78836 22716 ft 305 kts 157°
2026-04-20 01:14 34.14995 -118.77889 22173 ft 309 kts 159°
2026-04-20 01:15 34.12938 -118.77007 21441 ft 314 kts 162°
2026-04-20 01:15 34.10836 -118.76227 20672 ft 317 kts 163°
2026-04-20 01:15 34.08702 -118.75509 19895 ft 317 kts 165°
2026-04-20 01:15 34.06596 -118.74848 19132 ft 317 kts 166°
2026-04-20 01:16 34.04455 -118.74204 18355 ft 316 kts 166°
2026-04-20 01:16 34.02327 -118.73582 17582 ft 315 kts 166°
2026-04-20 01:16 34.00192 -118.72970 17027 ft 308 kts 167°
2026-04-20 01:16 33.98165 -118.72394 16997 ft 292 kts 167°
2026-04-20 01:17 33.96213 -118.71842 17000 ft 284 kts 167°
2026-04-20 01:17 33.94301 -118.71302 16998 ft 281 kts 167°
2026-04-20 01:17 33.93047 -118.70949 16997 ft 279 kts 167°
2026-04-20 01:17 33.91157 -118.70417 16997 ft 278 kts 167°
2026-04-20 01:18 33.89275 -118.69889 16996 ft 278 kts 167°
2026-04-20 01:18 33.87390 -118.69360 16996 ft 277 kts 167°
2026-04-20 01:18 33.85511 -118.68834 16996 ft 277 kts 167°
2026-04-20 01:18 33.83629 -118.68308 16996 ft 277 kts 167°
2026-04-20 01:19 33.81752 -118.67784 16996 ft 277 kts 167°
2026-04-20 01:19 33.79881 -118.67262 16996 ft 277 kts 167°
2026-04-20 01:19 33.77995 -118.66737 16996 ft 277 kts 167°
2026-04-20 01:19 33.76117 -118.66242 16991 ft 277 kts 168°
2026-04-20 01:20 33.74562 -118.65861 16799 ft 283 kts 168°
2026-04-20 01:20 33.72698 -118.65427 16417 ft 290 kts 169°
2026-04-20 01:20 33.70694 -118.64982 15993 ft 294 kts 169°
2026-04-20 01:20 33.68699 -118.64552 15573 ft 295 kts 170°
2026-04-20 01:21 33.66681 -118.64126 15201 ft 294 kts 170°
2026-04-20 01:21 33.64696 -118.63710 15067 ft 287 kts 170°
2026-04-20 01:21 33.62740 -118.63301 15008 ft 281 kts 170°
2026-04-20 01:21 33.60827 -118.62901 15001 ft 278 kts 170°
2026-04-20 01:22 33.58924 -118.62502 15000 ft 276 kts 170°
2026-04-20 01:22 33.57059 -118.62110 14999 ft 275 kts 170°
2026-04-20 01:22 33.55153 -118.61711 14999 ft 274 kts 170°
2026-04-20 01:22 33.53295 -118.61321 14999 ft 274 kts 170°
2026-04-20 01:23 33.51415 -118.60927 14999 ft 274 kts 170°
2026-04-20 01:23 33.49542 -118.60523 14998 ft 274 kts 167°
2026-04-20 01:23 33.47812 -118.59584 15002 ft 274 kts 146°
2026-04-20 01:23 33.46394 -118.58109 15005 ft 274 kts 134°
2026-04-20 01:24 33.45169 -118.56341 15007 ft 274 kts 126°
2026-04-20 01:24 33.44077 -118.54430 14752 ft 282 kts 122°
2026-04-20 01:24 33.43043 -118.52395 14273 ft 290 kts 120°
2026-04-20 01:24 33.42042 -118.50282 13727 ft 295 kts 119°
2026-04-20 01:25 33.41057 -118.48124 13194 ft 295 kts 118°
2026-04-20 01:25 33.40112 -118.46014 13053 ft 285 kts 118°
2026-04-20 01:25 33.39181 -118.43923 13008 ft 278 kts 118°
2026-04-20 01:25 33.38313 -118.41892 13002 ft 274 kts 114°
2026-04-20 01:26 33.37614 -118.39754 13001 ft 272 kts 109°
2026-04-20 01:26 33.37084 -118.37606 13001 ft 272 kts 104°
2026-04-20 01:26 33.36661 -118.35414 13002 ft 271 kts 102°
2026-04-20 01:26 33.36302 -118.33163 12685 ft 281 kts 100°
2026-04-20 01:27 33.35976 -118.30811 12086 ft 290 kts 99°
2026-04-20 01:27 33.35673 -118.28415 11487 ft 293 kts 98°
2026-04-20 01:27 33.35371 -118.25998 11084 ft 288 kts 98°
2026-04-20 01:27 33.35077 -118.23675 11019 ft 278 kts 98°
2026-04-20 01:28 33.34788 -118.21408 11004 ft 273 kts 98°
2026-04-20 01:28 33.34502 -118.19175 11002 ft 270 kts 98°
2026-04-20 01:28 33.34214 -118.16956 11002 ft 269 kts 99°
2026-04-20 01:28 33.33927 -118.14752 11002 ft 269 kts 99°
2026-04-20 01:29 33.33638 -118.12541 11002 ft 268 kts 99°
2026-04-20 01:29 33.33348 -118.10340 11002 ft 268 kts 99°
2026-04-20 01:29 33.33056 -118.08131 11002 ft 268 kts 99°
2026-04-20 01:29 33.32769 -118.05962 11002 ft 268 kts 99°
2026-04-20 01:30 33.32477 -118.03760 11002 ft 268 kts 99°
2026-04-20 01:30 33.32183 -118.01556 11002 ft 268 kts 99°
2026-04-20 01:30 33.31889 -117.99349 11002 ft 268 kts 99°
2026-04-20 01:30 33.31595 -117.97143 11002 ft 268 kts 99°
2026-04-20 01:31 33.31301 -117.94945 11002 ft 268 kts 99°
2026-04-20 01:31 33.31005 -117.92738 11002 ft 268 kts 99°
2026-04-20 01:31 33.30710 -117.90537 11002 ft 268 kts 99°
2026-04-20 01:31 33.30413 -117.88328 11002 ft 268 kts 99°
2026-04-20 01:32 33.30117 -117.86127 11002 ft 268 kts 99°
2026-04-20 01:32 33.29821 -117.83931 11002 ft 268 kts 99°
2026-04-20 01:32 33.29524 -117.81723 11002 ft 268 kts 99°
2026-04-20 01:32 33.29227 -117.79527 11002 ft 268 kts 99°
2026-04-20 01:33 33.28877 -117.77373 11001 ft 268 kts 104°
2026-04-20 01:33 33.28303 -117.75246 11003 ft 268 kts 110°
2026-04-20 01:33 33.27625 -117.73141 11003 ft 267 kts 111°
2026-04-20 01:33 33.26997 -117.71291 10623 ft 231 kts 112°
2026-04-20 01:34 33.26381 -117.69505 9523 ft 237 kts 112°
2026-04-20 01:34 33.25744 -117.67670 8532 ft 234 kts 112°
2026-04-20 01:34 33.25105 -117.65914 7457 ft 235 kts 114°
2026-04-20 01:34 33.24429 -117.64123 6566 ft 229 kts 114°
2026-04-20 01:35 33.23767 -117.62467 5814 ft 221 kts 118°
2026-04-20 01:35 33.22990 -117.60924 5355 ft 206 kts 122°
2026-04-20 01:35 33.22228 -117.59521 5083 ft 197 kts 123°
2026-04-20 01:35 33.21496 -117.58197 5125 ft 186 kts 123°
2026-04-20 01:36 33.21027 -117.56821 5127 ft 181 kts 92°
2026-04-20 01:36 33.21181 -117.55221 5137 ft 210 kts 79°
2026-04-20 01:36 33.21473 -117.53671 5136 ft 220 kts 76°
2026-04-20 01:36 33.21663 -117.52758 5136 ft 223 kts 76°
2026-04-20 01:37 33.22054 -117.50947 5138 ft 226 kts 75°
2026-04-20 01:37 33.22494 -117.49141 5119 ft 229 kts 76°
2026-04-20 01:37 33.22823 -117.47256 5030 ft 231 kts 77°
2026-04-20 01:37 33.23250 -117.45410 5007 ft 230 kts 72°
2026-04-20 01:38 33.23680 -117.43576 5004 ft 229 kts 75°
2026-04-20 01:38 33.24091 -117.41746 5003 ft 229 kts 75°
2026-04-20 01:38 33.24463 -117.39903 4995 ft 229 kts 84°
2026-04-20 01:38 33.24071 -117.38097 5015 ft 227 kts 116°
2026-04-20 01:39 33.23362 -117.36400 5009 ft 228 kts 116°
2026-04-20 01:39 33.23117 -117.34565 5015 ft 227 kts 84°
2026-04-20 01:39 33.23169 -117.32674 5004 ft 228 kts 96°
2026-04-20 01:39 33.22878 -117.30830 5009 ft 228 kts 102°
2026-04-20 01:40 33.22567 -117.28944 5009 ft 228 kts 100°
2026-04-20 01:40 33.22315 -117.27097 5009 ft 228 kts 99°
2026-04-20 01:40 33.22075 -117.25218 5009 ft 228 kts 98°
2026-04-20 01:40 33.21841 -117.23348 5009 ft 228 kts 98°
2026-04-20 01:41 33.21605 -117.21453 5011 ft 234 kts 98°
2026-04-20 01:41 33.21363 -117.19503 5014 ft 240 kts 98°
2026-04-20 01:41 33.21116 -117.17522 5013 ft 243 kts 98°
2026-04-20 01:41 33.20868 -117.15528 5013 ft 243 kts 98°
2026-04-20 01:42 33.20618 -117.13520 4826 ft 248 kts 98°
2026-04-20 01:42 33.20370 -117.11530 4633 ft 235 kts 98°
2026-04-20 01:42 33.20171 -117.09622 4534 ft 229 kts 96°
2026-04-20 01:42 33.19939 -117.07840 4499 ft 201 kts 109°
2026-04-20 01:43 33.19228 -117.06526 4169 ft 189 kts 143°
2026-04-20 01:43 33.18001 -117.06303 3802 ft 182 kts 195°
2026-04-20 01:43 33.16875 -117.06967 3468 ft 178 kts 218°
2026-04-20 01:43 33.16117 -117.08048 3346 ft 169 kts 241°
2026-04-20 01:44 33.15703 -117.09369 3312 ft 171 kts 256°
2026-04-20 01:44 33.15480 -117.10761 3272 ft 171 kts 261°
2026-04-20 01:44 33.15304 -117.12206 3089 ft 179 kts 262°
2026-04-20 01:44 33.15109 -117.13663 2817 ft 176 kts 260°
2026-04-20 01:45 33.14893 -117.15079 2537 ft 171 kts 259°
2026-04-20 01:45 33.14671 -117.16456 2275 ft 166 kts 259°
2026-04-20 01:45 33.14463 -117.17757 2040 ft 150 kts 259°
2026-04-20 01:45 33.14339 -117.18539 1902 ft 139 kts 259°
2026-04-20 01:46 33.14171 -117.19608 1735 ft 116 kts 259°
2026-04-20 01:46 33.14032 -117.20482 1551 ft 102 kts 259°
2026-04-20 01:46 33.13897 -117.21329 1398 ft 104 kts 259°
2026-04-20 01:46 33.13764 -117.22165 1267 ft 107 kts 259°
2026-04-20 01:47 33.13619 -117.23072 1137 ft 112 kts 259°
2026-04-20 01:47 33.13476 -117.23959 970 ft 107 kts 259°
2026-04-20 01:47 33.13338 -117.24815 799 ft 102 kts 259°
2026-04-20 01:47 33.13202 -117.25648 627 ft 102 kts 259°
2026-04-20 01:48 33.13070 -117.26477 480 ft 102 kts 258°
2026-04-20 01:48 33.12940 -117.27295 364 ft 100 kts 258°
2026-04-20 01:48 33.12813 -117.28044 334 ft 77 kts 261°
2026-04-20 01:48 33.12751 -117.28465 334 ft 24 kts 260°
2026-04-20 01:49 33.12728 -117.28651 334 ft 23 kts 255°
2026-04-20 01:49 33.12643 -117.28747 334 ft 15 kts 178°
2026-04-20 01:49 33.12629 -117.28745 334 ft 0 kts 170°
2026-04-20 01:50 33.12623 -117.28744 334 ft 2 kts 169°
2026-04-20 01:50 33.12609 -117.28704 334 ft 8 kts 83°
2026-04-20 01:50 33.12627 -117.28623 334 ft 12 kts 77°